Year,Month,Day,Hour,Minute,Value (Times are PST for temperature in C)
2013,08,09,00,00,13.80
2013,08,09,00,01,13.80
2013,08,09,00,02,13.70
2013,08,09,00,03,13.70
2013,08,09,00,04,13.80
2013,08,09,00,05,14.00
2013,08,09,00,06,14.10
2013,08,09,00,07,14.20
2013,08,09,00,08,14.30
2013,08,09,00,09,14.70
2013,08,09,00,10,14.90
2013,08,09,00,11,15.00
2013,08,09,00,12,15.10
2013,08,09,00,13,15.00
2013,08,09,00,14,14.60
2013,08,09,00,15,14.30
2013,08,09,00,16,14.00
2013,08,09,00,17,13.80
2013,08,09,00,18,13.80
2013,08,09,00,19,13.90
2013,08,09,00,20,13.80
2013,08,09,00,21,13.90
2013,08,09,00,22,14.10
2013,08,09,00,23,14.00
2013,08,09,00,24,13.80
2013,08,09,00,25,13.70
2013,08,09,00,26,13.60
2013,08,09,00,27,13.60
2013,08,09,00,28,13.70
2013,08,09,00,29,13.80
2013,08,09,00,30,13.80
2013,08,09,00,31,13.90
2013,08,09,00,32,14.00
2013,08,09,00,33,13.90
2013,08,09,00,34,13.90
2013,08,09,00,35,13.80
2013,08,09,00,36,13.90
2013,08,09,00,37,14.00
2013,08,09,00,38,14.00
2013,08,09,00,39,13.90
2013,08,09,00,40,13.90
2013,08,09,00,41,13.80
2013,08,09,00,42,13.70
2013,08,09,00,43,13.70
2013,08,09,00,44,13.70
2013,08,09,00,45,13.70
2013,08,09,00,46,13.70
2013,08,09,00,47,13.60
2013,08,09,00,48,13.60
2013,08,09,00,49,13.80
2013,08,09,00,50,13.90
2013,08,09,00,51,14.10
2013,08,09,00,52,14.30
2013,08,09,00,53,14.40
2013,08,09,00,54,14.50
2013,08,09,00,55,14.60
2013,08,09,00,56,14.60
2013,08,09,00,57,14.50
2013,08,09,00,58,14.50
2013,08,09,00,59,14.40
2013,08,09,01,00,14.30
2013,08,09,01,01,14.10
2013,08,09,01,02,14.00
2013,08,09,01,03,13.90
2013,08,09,01,04,13.90
2013,08,09,01,05,13.90
2013,08,09,01,06,14.10
2013,08,09,01,07,14.40
2013,08,09,01,08,14.60
2013,08,09,01,09,14.70
2013,08,09,01,10,14.60
2013,08,09,01,11,14.50
2013,08,09,01,12,14.40
2013,08,09,01,13,14.40
2013,08,09,01,14,14.30
2013,08,09,01,15,14.30
2013,08,09,01,16,14.20
2013,08,09,01,17,14.20
2013,08,09,01,18,14.20
2013,08,09,01,19,14.10
2013,08,09,01,20,14.10
2013,08,09,01,21,14.10
2013,08,09,01,22,14.00
2013,08,09,01,23,14.00
2013,08,09,01,24,13.90
2013,08,09,01,25,13.90
2013,08,09,01,26,13.90
2013,08,09,01,27,13.80
2013,08,09,01,28,13.80
2013,08,09,01,29,13.70
2013,08,09,01,30,13.70
2013,08,09,01,31,13.60
2013,08,09,01,32,13.60
2013,08,09,01,33,13.60
2013,08,09,01,34,13.60
2013,08,09,01,35,13.60
2013,08,09,01,36,13.60
2013,08,09,01,37,13.60
2013,08,09,01,38,13.60
2013,08,09,01,39,13.60
2013,08,09,01,40,13.70
2013,08,09,01,41,13.70
2013,08,09,01,42,13.70
2013,08,09,01,43,13.70
2013,08,09,01,44,13.80
2013,08,09,01,45,13.70
2013,08,09,01,46,13.80
2013,08,09,01,47,13.80
2013,08,09,01,48,13.80
2013,08,09,01,49,13.80
2013,08,09,01,50,13.80
2013,08,09,01,51,13.80
2013,08,09,01,52,13.80
2013,08,09,01,53,13.80
2013,08,09,01,54,13.80
2013,08,09,01,55,13.80
2013,08,09,01,56,13.70
2013,08,09,01,57,13.70
2013,08,09,01,58,13.60
2013,08,09,01,59,13.60
2013,08,09,02,00,13.60
2013,08,09,02,01,13.50
2013,08,09,02,02,13.50
2013,08,09,02,03,13.40
2013,08,09,02,04,13.40
2013,08,09,02,05,13.30
2013,08,09,02,06,13.20
2013,08,09,02,07,13.00
2013,08,09,02,08,12.90
2013,08,09,02,09,12.80
2013,08,09,02,10,12.70
2013,08,09,02,11,12.50
2013,08,09,02,12,12.50
2013,08,09,02,13,12.40
2013,08,09,02,14,12.30
2013,08,09,02,15,12.20
2013,08,09,02,16,12.20
2013,08,09,02,17,12.10
2013,08,09,02,18,12.10
2013,08,09,02,19,12.10
2013,08,09,02,20,12.10
2013,08,09,02,21,12.10
2013,08,09,02,22,12.10
2013,08,09,02,23,12.10
2013,08,09,02,24,12.10
2013,08,09,02,25,12.10
2013,08,09,02,26,12.20
2013,08,09,02,27,12.10
2013,08,09,02,28,12.10
2013,08,09,02,29,12.10
2013,08,09,02,30,12.10
2013,08,09,02,31,12.10
2013,08,09,02,32,12.10
2013,08,09,02,33,12.10
2013,08,09,02,34,12.10
2013,08,09,02,35,12.20
2013,08,09,02,36,12.20
2013,08,09,02,37,12.30
2013,08,09,02,38,12.30
2013,08,09,02,39,12.30
2013,08,09,02,40,12.30
2013,08,09,02,41,12.30
2013,08,09,02,42,12.30
2013,08,09,02,43,12.20
2013,08,09,02,44,12.20
2013,08,09,02,45,12.20
2013,08,09,02,46,12.10
2013,08,09,02,47,12.00
2013,08,09,02,48,12.00
2013,08,09,02,49,11.90
2013,08,09,02,50,11.80
2013,08,09,02,51,11.80
2013,08,09,02,52,11.70
2013,08,09,02,53,11.70
2013,08,09,02,54,11.70
2013,08,09,02,55,11.70
2013,08,09,02,56,11.70
2013,08,09,02,57,11.70
2013,08,09,02,58,11.70
2013,08,09,02,59,11.70
2013,08,09,03,00,11.70
2013,08,09,03,01,11.80
2013,08,09,03,02,11.80
2013,08,09,03,03,11.80
2013,08,09,03,04,11.80
2013,08,09,03,05,11.80
2013,08,09,03,06,11.80
2013,08,09,03,07,11.90
2013,08,09,03,08,11.90
2013,08,09,03,09,11.80
2013,08,09,03,10,11.80
2013,08,09,03,11,11.80
2013,08,09,03,12,11.80
2013,08,09,03,13,11.80
2013,08,09,03,14,11.80
2013,08,09,03,15,11.80
2013,08,09,03,16,11.80
2013,08,09,03,17,11.80
2013,08,09,03,18,11.80
2013,08,09,03,19,11.80
2013,08,09,03,20,11.80
2013,08,09,03,21,11.80
2013,08,09,03,22,11.80
2013,08,09,03,23,11.80
2013,08,09,03,24,11.80
2013,08,09,03,25,11.80
2013,08,09,03,26,11.80
2013,08,09,03,27,11.80
2013,08,09,03,28,11.80
2013,08,09,03,29,11.80
2013,08,09,03,30,11.80
2013,08,09,03,31,11.80
2013,08,09,03,32,11.80
2013,08,09,03,33,11.80
2013,08,09,03,34,11.80
2013,08,09,03,35,11.70
2013,08,09,03,36,11.70
2013,08,09,03,37,11.70
2013,08,09,03,38,11.60
2013,08,09,03,39,11.60
2013,08,09,03,40,11.50
2013,08,09,03,41,11.50
2013,08,09,03,42,11.50
2013,08,09,03,43,11.50
2013,08,09,03,44,11.50
2013,08,09,03,45,11.50
2013,08,09,03,46,11.60
2013,08,09,03,47,11.60
2013,08,09,03,48,11.60
2013,08,09,03,49,11.60
2013,08,09,03,50,11.60
2013,08,09,03,51,11.60
2013,08,09,03,52,11.60
2013,08,09,03,53,11.60
2013,08,09,03,54,11.70
2013,08,09,03,55,11.70
2013,08,09,03,56,11.70
2013,08,09,03,57,11.70
2013,08,09,03,58,11.70
2013,08,09,03,59,11.70
2013,08,09,04,00,11.80
2013,08,09,04,01,11.80
2013,08,09,04,02,11.80
2013,08,09,04,03,11.80
2013,08,09,04,04,11.80
2013,08,09,04,05,11.80
2013,08,09,04,06,11.80
2013,08,09,04,07,11.80
2013,08,09,04,08,11.80
2013,08,09,04,09,11.80
2013,08,09,04,10,11.80
2013,08,09,04,11,11.80
2013,08,09,04,12,11.80
2013,08,09,04,13,11.80
2013,08,09,04,14,11.80
2013,08,09,04,15,11.80
2013,08,09,04,16,11.80
2013,08,09,04,17,11.80
2013,08,09,04,18,11.70
2013,08,09,04,19,11.70
2013,08,09,04,20,11.70
2013,08,09,04,21,11.70
2013,08,09,04,22,11.70
2013,08,09,04,23,11.70
2013,08,09,04,24,11.70
2013,08,09,04,25,11.70
2013,08,09,04,26,11.70
2013,08,09,04,27,11.70
2013,08,09,04,28,11.70
2013,08,09,04,29,11.70
2013,08,09,04,30,11.70
2013,08,09,04,31,11.70
2013,08,09,04,32,11.70
2013,08,09,04,33,11.70
2013,08,09,04,34,11.70
2013,08,09,04,35,11.70
2013,08,09,04,36,11.70
2013,08,09,04,37,11.70
2013,08,09,04,38,11.70
2013,08,09,04,39,11.70
2013,08,09,04,40,11.60
2013,08,09,04,41,11.60
2013,08,09,04,42,11.60
2013,08,09,04,43,11.60
2013,08,09,04,44,11.60
2013,08,09,04,45,11.60
2013,08,09,04,46,11.60
2013,08,09,04,47,11.60
2013,08,09,04,48,11.60
2013,08,09,04,49,11.50
2013,08,09,04,50,11.50
2013,08,09,04,51,11.50
2013,08,09,04,52,11.50
2013,08,09,04,53,11.50
2013,08,09,04,54,11.50
2013,08,09,04,55,11.50
2013,08,09,04,56,11.50
2013,08,09,04,57,11.50
2013,08,09,04,58,11.50
2013,08,09,04,59,11.50
2013,08,09,05,00,11.50
2013,08,09,05,01,11.50
2013,08,09,05,02,11.50
2013,08,09,05,03,11.40
2013,08,09,05,04,11.40
2013,08,09,05,05,11.40
2013,08,09,05,06,11.40
2013,08,09,05,07,11.40
2013,08,09,05,08,11.40
2013,08,09,05,09,11.40
2013,08,09,05,10,11.40
2013,08,09,05,11,11.40
2013,08,09,05,12,11.40
2013,08,09,05,13,11.30
2013,08,09,05,14,11.30
2013,08,09,05,15,11.30
2013,08,09,05,16,11.30
2013,08,09,05,17,11.20
2013,08,09,05,18,11.20
2013,08,09,05,19,11.20
2013,08,09,05,20,11.10
2013,08,09,05,21,11.10
2013,08,09,05,22,11.10
2013,08,09,05,23,11.10
2013,08,09,05,24,11.10
2013,08,09,05,25,11.10
2013,08,09,05,26,11.10
2013,08,09,05,27,11.10
2013,08,09,05,28,11.10
2013,08,09,05,29,11.10
2013,08,09,05,30,11.10
2013,08,09,05,31,11.20
2013,08,09,05,32,11.20
2013,08,09,05,33,11.20
2013,08,09,05,34,11.20
2013,08,09,05,35,11.20
2013,08,09,05,36,11.20
2013,08,09,05,37,11.20
2013,08,09,05,38,11.10
2013,08,09,05,39,11.00
2013,08,09,05,40,11.00
2013,08,09,05,41,10.90
2013,08,09,05,42,10.90
2013,08,09,05,43,10.80
2013,08,09,05,44,10.80
2013,08,09,05,45,10.80
2013,08,09,05,46,10.80
2013,08,09,05,47,10.80
2013,08,09,05,48,10.80
2013,08,09,05,49,10.70
2013,08,09,05,50,10.70
2013,08,09,05,51,10.70
2013,08,09,05,52,10.70
2013,08,09,05,53,10.60
2013,08,09,05,54,10.60
2013,08,09,05,55,10.60
2013,08,09,05,56,10.60
2013,08,09,05,57,10.60
2013,08,09,05,58,10.60
2013,08,09,05,59,10.70
2013,08,09,06,00,10.70
2013,08,09,06,01,10.70
2013,08,09,06,02,10.70
2013,08,09,06,03,10.70
2013,08,09,06,04,10.70
2013,08,09,06,05,10.70
2013,08,09,06,06,10.70
2013,08,09,06,07,10.70
2013,08,09,06,08,10.70
2013,08,09,06,09,10.70
2013,08,09,06,10,10.70
2013,08,09,06,11,10.70
2013,08,09,06,12,10.70
2013,08,09,06,13,10.70
2013,08,09,06,14,10.60
2013,08,09,06,15,10.60
2013,08,09,06,16,10.60
2013,08,09,06,17,10.60
2013,08,09,06,18,10.60
2013,08,09,06,19,10.60
2013,08,09,06,20,10.60
2013,08,09,06,21,10.60
2013,08,09,06,22,10.60
2013,08,09,06,23,10.60
2013,08,09,06,24,10.60
2013,08,09,06,25,10.60
2013,08,09,06,26,10.60
2013,08,09,06,27,10.50
2013,08,09,06,28,10.50
2013,08,09,06,29,10.50
2013,08,09,06,30,10.50
2013,08,09,06,31,10.50
2013,08,09,06,32,10.60
2013,08,09,06,33,10.60
2013,08,09,06,34,10.60
2013,08,09,06,35,10.70
2013,08,09,06,36,10.70
2013,08,09,06,37,10.60
2013,08,09,06,38,10.60
2013,08,09,06,39,10.60
2013,08,09,06,40,10.50
2013,08,09,06,41,10.50
2013,08,09,06,42,10.50
2013,08,09,06,43,10.50
2013,08,09,06,44,10.40
2013,08,09,06,45,10.40
2013,08,09,06,46,10.40
2013,08,09,06,47,10.40
2013,08,09,06,48,10.40
2013,08,09,06,49,10.40
2013,08,09,06,50,10.40
2013,08,09,06,51,10.40
2013,08,09,06,52,10.40
2013,08,09,06,53,10.40
2013,08,09,06,54,10.50
2013,08,09,06,55,10.50
2013,08,09,06,56,10.50
2013,08,09,06,57,10.50
2013,08,09,06,58,10.50
2013,08,09,06,59,10.50
2013,08,09,07,00,10.60
2013,08,09,07,01,10.60
2013,08,09,07,02,10.60
2013,08,09,07,03,10.60
2013,08,09,07,04,10.60
2013,08,09,07,05,10.60
2013,08,09,07,06,10.60
2013,08,09,07,07,10.60
2013,08,09,07,08,10.60
2013,08,09,07,09,10.60
2013,08,09,07,10,10.60
2013,08,09,07,11,10.50
2013,08,09,07,12,10.60
2013,08,09,07,13,10.50
2013,08,09,07,14,10.50
2013,08,09,07,15,10.50
2013,08,09,07,16,10.50
2013,08,09,07,17,10.50
2013,08,09,07,18,10.40
2013,08,09,07,19,10.40
2013,08,09,07,20,10.40
2013,08,09,07,21,10.40
2013,08,09,07,22,10.40
2013,08,09,07,23,10.40
2013,08,09,07,24,10.50
2013,08,09,07,25,10.50
2013,08,09,07,26,10.50
2013,08,09,07,27,10.50
2013,08,09,07,28,10.60
2013,08,09,07,29,10.60
2013,08,09,07,30,10.60
2013,08,09,07,31,10.60
2013,08,09,07,32,10.60
2013,08,09,07,33,10.70
2013,08,09,07,34,10.70
2013,08,09,07,35,10.70
2013,08,09,07,36,10.80
2013,08,09,07,37,10.90
2013,08,09,07,38,11.00
2013,08,09,07,39,11.10
2013,08,09,07,40,11.10
2013,08,09,07,41,11.20
2013,08,09,07,42,11.30
2013,08,09,07,43,11.40
2013,08,09,07,44,11.50
2013,08,09,07,45,11.50
2013,08,09,07,46,11.60
2013,08,09,07,47,11.60
2013,08,09,07,48,11.60
2013,08,09,07,49,11.60
2013,08,09,07,50,11.60
2013,08,09,07,51,11.60
2013,08,09,07,52,11.50
2013,08,09,07,53,11.50
2013,08,09,07,54,11.50
2013,08,09,07,55,11.40
2013,08,09,07,56,11.40
2013,08,09,07,57,11.40
2013,08,09,07,58,11.40
2013,08,09,07,59,11.40
2013,08,09,08,00,11.30
2013,08,09,08,01,11.30
2013,08,09,08,02,11.30
2013,08,09,08,03,11.30
2013,08,09,08,04,11.30
2013,08,09,08,05,11.30
2013,08,09,08,06,11.30
2013,08,09,08,07,11.30
2013,08,09,08,08,11.30
2013,08,09,08,09,11.30
2013,08,09,08,10,11.30
2013,08,09,08,11,11.30
2013,08,09,08,12,11.30
2013,08,09,08,13,11.30
2013,08,09,08,14,11.40
2013,08,09,08,15,11.40
2013,08,09,08,16,11.50
2013,08,09,08,17,11.50
2013,08,09,08,18,11.50
2013,08,09,08,19,11.60
2013,08,09,08,20,11.60
2013,08,09,08,21,11.70
2013,08,09,08,22,11.70
2013,08,09,08,23,11.80
2013,08,09,08,24,11.90
2013,08,09,08,25,12.00
2013,08,09,08,26,12.10
2013,08,09,08,27,12.20
2013,08,09,08,28,12.30
2013,08,09,08,29,12.30
2013,08,09,08,30,12.40
2013,08,09,08,31,12.50
2013,08,09,08,32,12.60
2013,08,09,08,33,12.60
2013,08,09,08,34,12.70
2013,08,09,08,35,12.70
2013,08,09,08,36,12.70
2013,08,09,08,37,12.80
2013,08,09,08,38,12.80
2013,08,09,08,39,12.90
2013,08,09,08,40,13.00
2013,08,09,08,41,13.00
2013,08,09,08,42,13.00
2013,08,09,08,43,13.10
2013,08,09,08,44,13.10
2013,08,09,08,45,13.10
2013,08,09,08,46,13.10
2013,08,09,08,47,13.20
2013,08,09,08,48,13.30
2013,08,09,08,49,13.30
2013,08,09,08,50,13.30
2013,08,09,08,51,13.20
2013,08,09,08,52,13.10
2013,08,09,08,53,13.00
2013,08,09,08,54,12.90
2013,08,09,08,55,12.80
2013,08,09,08,56,12.70
2013,08,09,08,57,12.60
2013,08,09,08,58,12.60
2013,08,09,08,59,12.60
2013,08,09,09,00,12.60
2013,08,09,09,01,12.60
2013,08,09,09,02,12.70
2013,08,09,09,03,12.70
2013,08,09,09,04,12.70
2013,08,09,09,05,12.70
2013,08,09,09,06,12.70
2013,08,09,09,07,12.70
2013,08,09,09,08,12.70
2013,08,09,09,09,12.60
2013,08,09,09,10,12.60
2013,08,09,09,11,12.50
2013,08,09,09,12,12.40
2013,08,09,09,13,12.30
2013,08,09,09,14,12.20
2013,08,09,09,15,12.20
2013,08,09,09,16,12.10
2013,08,09,09,17,12.10
2013,08,09,09,18,12.00
2013,08,09,09,19,12.00
2013,08,09,09,20,12.00
2013,08,09,09,21,11.90
2013,08,09,09,22,11.80
2013,08,09,09,23,11.80
2013,08,09,09,24,11.70
2013,08,09,09,25,11.60
2013,08,09,09,26,11.60
2013,08,09,09,27,11.50
2013,08,09,09,28,11.50
2013,08,09,09,29,11.40
2013,08,09,09,30,11.40
2013,08,09,09,31,11.40
2013,08,09,09,32,11.40
2013,08,09,09,33,11.40
2013,08,09,09,34,11.40
2013,08,09,09,35,11.40
2013,08,09,09,36,11.40
2013,08,09,09,37,11.50
2013,08,09,09,38,11.50
2013,08,09,09,39,11.60
2013,08,09,09,40,11.70
2013,08,09,09,41,11.70
2013,08,09,09,42,11.80
2013,08,09,09,43,11.90
2013,08,09,09,44,12.00
2013,08,09,09,45,12.10
2013,08,09,09,46,12.20
2013,08,09,09,47,12.20
2013,08,09,09,48,12.20
2013,08,09,09,49,12.20
2013,08,09,09,50,12.20
2013,08,09,09,51,12.20
2013,08,09,09,52,12.30
2013,08,09,09,53,12.30
2013,08,09,09,54,12.30
2013,08,09,09,55,12.40
2013,08,09,09,56,12.50
2013,08,09,09,57,12.60
2013,08,09,09,58,12.70
2013,08,09,09,59,12.80
2013,08,09,10,00,12.80
2013,08,09,10,01,12.80
2013,08,09,10,02,12.80
2013,08,09,10,03,12.70
2013,08,09,10,04,12.70
2013,08,09,10,05,12.60
2013,08,09,10,06,12.50
2013,08,09,10,07,12.40
2013,08,09,10,08,12.40
2013,08,09,10,09,12.30
2013,08,09,10,10,12.30
2013,08,09,10,11,12.20
2013,08,09,10,12,12.20
2013,08,09,10,13,12.30
2013,08,09,10,14,12.30
2013,08,09,10,15,12.30
2013,08,09,10,16,12.30
2013,08,09,10,17,12.30
2013,08,09,10,18,12.30
2013,08,09,10,19,12.30
2013,08,09,10,20,12.30
2013,08,09,10,21,12.30
2013,08,09,10,22,12.20
2013,08,09,10,23,12.20
2013,08,09,10,24,12.20
2013,08,09,10,25,12.20
2013,08,09,10,26,12.20
2013,08,09,10,27,12.10
2013,08,09,10,28,12.10
2013,08,09,10,29,12.10
2013,08,09,10,30,12.10
2013,08,09,10,31,12.10
2013,08,09,10,32,12.10
2013,08,09,10,33,12.10
2013,08,09,10,34,12.10
2013,08,09,10,35,12.10
2013,08,09,10,36,12.10
2013,08,09,10,37,12.10
2013,08,09,10,38,12.10
2013,08,09,10,39,12.10
2013,08,09,10,40,12.10
2013,08,09,10,41,12.10
2013,08,09,10,42,12.00
2013,08,09,10,43,12.00
2013,08,09,10,44,12.00
2013,08,09,10,45,12.00
2013,08,09,10,46,12.00
2013,08,09,10,47,11.90
2013,08,09,10,48,11.90
2013,08,09,10,49,11.90
2013,08,09,10,50,11.90
2013,08,09,10,51,11.90
2013,08,09,10,52,11.80
2013,08,09,10,53,11.80
2013,08,09,10,54,11.80
2013,08,09,10,55,11.80
2013,08,09,10,56,11.80
2013,08,09,10,57,11.80
2013,08,09,10,58,11.80
2013,08,09,10,59,11.80
2013,08,09,11,00,11.80
2013,08,09,11,01,11.80
2013,08,09,11,02,11.80
2013,08,09,11,03,11.80
2013,08,09,11,04,11.80
2013,08,09,11,05,11.80
2013,08,09,11,06,11.80
2013,08,09,11,07,11.80
2013,08,09,11,08,11.80
2013,08,09,11,09,11.80
2013,08,09,11,10,11.80
2013,08,09,11,11,11.90
2013,08,09,11,12,11.90
2013,08,09,11,13,12.00
2013,08,09,11,14,12.10
2013,08,09,11,15,12.30
2013,08,09,11,16,12.40
2013,08,09,11,17,12.30
2013,08,09,11,18,12.30
2013,08,09,11,19,12.30
2013,08,09,11,20,12.30
2013,08,09,11,21,12.40
2013,08,09,11,22,12.50
2013,08,09,11,23,12.60
2013,08,09,11,24,12.60
2013,08,09,11,25,12.60
2013,08,09,11,26,12.60
2013,08,09,11,27,12.60
2013,08,09,11,28,12.60
2013,08,09,11,29,12.60
2013,08,09,11,30,12.70
2013,08,09,11,31,12.70
2013,08,09,11,32,12.80
2013,08,09,11,33,12.70
2013,08,09,11,34,12.80
2013,08,09,11,35,12.80
2013,08,09,11,36,12.90
2013,08,09,11,37,13.00
2013,08,09,11,38,13.00
2013,08,09,11,39,12.90
2013,08,09,11,40,12.90
2013,08,09,11,41,13.00
2013,08,09,11,42,13.20
2013,08,09,11,43,13.30
2013,08,09,11,44,13.40
2013,08,09,11,45,13.40
2013,08,09,11,46,13.40
2013,08,09,11,47,13.30
2013,08,09,11,48,13.30
2013,08,09,11,49,13.30
2013,08,09,11,50,13.30
2013,08,09,11,51,13.20
2013,08,09,11,52,13.10
2013,08,09,11,53,13.00
2013,08,09,11,54,13.00
2013,08,09,11,55,12.90
2013,08,09,11,56,12.80
2013,08,09,11,57,12.60
2013,08,09,11,58,12.50
2013,08,09,11,59,12.50
2013,08,09,12,00,12.40
2013,08,09,12,01,12.30
2013,08,09,12,02,12.20
2013,08,09,12,03,12.20
2013,08,09,12,04,12.10
2013,08,09,12,05,12.10
2013,08,09,12,06,12.10
2013,08,09,12,07,12.10
2013,08,09,12,08,12.10
2013,08,09,12,09,12.10
2013,08,09,12,10,12.10
2013,08,09,12,11,12.30
2013,08,09,12,12,12.30
2013,08,09,12,13,12.20
2013,08,09,12,14,12.20
2013,08,09,12,15,12.10
2013,08,09,12,16,12.10
2013,08,09,12,17,12.00
2013,08,09,12,18,12.00
2013,08,09,12,19,11.90
2013,08,09,12,20,11.90
2013,08,09,12,21,11.90
2013,08,09,12,22,11.90
2013,08,09,12,23,11.80
2013,08,09,12,24,11.80
2013,08,09,12,25,11.80
2013,08,09,12,26,11.80
2013,08,09,12,27,11.80
2013,08,09,12,28,11.80
2013,08,09,12,29,11.80
2013,08,09,12,30,11.90
2013,08,09,12,31,11.90
2013,08,09,12,32,11.90
2013,08,09,12,33,12.00
2013,08,09,12,34,12.00
2013,08,09,12,35,12.10
2013,08,09,12,36,12.20
2013,08,09,12,37,12.10
2013,08,09,12,38,12.10
2013,08,09,12,39,12.20
2013,08,09,12,40,12.20
2013,08,09,12,41,12.30
2013,08,09,12,42,12.30
2013,08,09,12,43,12.30
2013,08,09,12,44,12.40
2013,08,09,12,45,12.40
2013,08,09,12,46,12.40
2013,08,09,12,47,12.40
2013,08,09,12,48,12.40
2013,08,09,12,49,12.40
2013,08,09,12,50,12.40
2013,08,09,12,51,12.40
2013,08,09,12,52,12.30
2013,08,09,12,53,12.30
2013,08,09,12,54,12.20
2013,08,09,12,55,12.20
2013,08,09,12,56,12.20
2013,08,09,12,57,12.10
2013,08,09,12,58,12.10
2013,08,09,12,59,12.10
2013,08,09,13,00,12.10
2013,08,09,13,01,12.10
2013,08,09,13,02,12.10
2013,08,09,13,03,12.10
2013,08,09,13,04,12.10
2013,08,09,13,05,12.10
2013,08,09,13,06,12.10
2013,08,09,13,07,12.10
2013,08,09,13,08,12.10
2013,08,09,13,09,12.20
2013,08,09,13,10,12.20
2013,08,09,13,11,12.20
2013,08,09,13,12,12.20
2013,08,09,13,13,12.30
2013,08,09,13,14,12.30
2013,08,09,13,15,12.40
2013,08,09,13,16,12.40
2013,08,09,13,17,12.50
2013,08,09,13,18,12.50
2013,08,09,13,19,12.60
2013,08,09,13,20,12.70
2013,08,09,13,21,12.70
2013,08,09,13,22,12.80
2013,08,09,13,23,12.80
2013,08,09,13,24,12.80
2013,08,09,13,25,12.90
2013,08,09,13,26,12.90
2013,08,09,13,27,12.90
2013,08,09,13,28,12.90
2013,08,09,13,29,12.80
2013,08,09,13,30,12.80
2013,08,09,13,31,13.00
2013,08,09,13,32,13.10
2013,08,09,13,33,13.20
2013,08,09,13,34,13.20
2013,08,09,13,35,13.30
2013,08,09,13,36,13.30
2013,08,09,13,37,13.20
2013,08,09,13,38,13.10
2013,08,09,13,39,13.00
2013,08,09,13,40,12.90
2013,08,09,13,41,12.80
2013,08,09,13,42,12.80
2013,08,09,13,43,12.70
2013,08,09,13,44,12.60
2013,08,09,13,45,12.60
2013,08,09,13,46,12.50
2013,08,09,13,47,12.40
2013,08,09,13,48,12.40
2013,08,09,13,49,12.30
2013,08,09,13,50,12.30
2013,08,09,13,51,12.30
2013,08,09,13,52,12.20
2013,08,09,13,53,12.30
2013,08,09,13,54,12.30
2013,08,09,13,55,12.30
2013,08,09,13,56,12.40
2013,08,09,13,57,12.40
2013,08,09,13,58,12.40
2013,08,09,13,59,12.40
2013,08,09,14,00,12.50
2013,08,09,14,01,12.50
2013,08,09,14,02,12.50
2013,08,09,14,03,12.50
2013,08,09,14,04,12.50
2013,08,09,14,05,12.40
2013,08,09,14,06,12.40
2013,08,09,14,07,12.30
2013,08,09,14,08,12.30
2013,08,09,14,09,12.20
2013,08,09,14,10,12.20
2013,08,09,14,11,12.10
2013,08,09,14,12,12.10
2013,08,09,14,13,12.00
2013,08,09,14,14,12.00
2013,08,09,14,15,12.00
2013,08,09,14,16,12.00
2013,08,09,14,17,11.90
2013,08,09,14,18,11.90
2013,08,09,14,19,11.90
2013,08,09,14,20,11.90
2013,08,09,14,21,11.90
2013,08,09,14,22,11.90
2013,08,09,14,23,11.90
2013,08,09,14,24,11.80
2013,08,09,14,25,11.80
2013,08,09,14,26,11.80
2013,08,09,14,27,11.80
2013,08,09,14,28,11.80
2013,08,09,14,29,11.80
2013,08,09,14,30,11.80
2013,08,09,14,31,11.80
2013,08,09,14,32,11.80
2013,08,09,14,33,11.80
2013,08,09,14,34,11.80
2013,08,09,14,35,11.70
2013,08,09,14,36,11.70
2013,08,09,14,37,11.70
2013,08,09,14,38,11.70
2013,08,09,14,39,11.80
2013,08,09,14,40,11.80
2013,08,09,14,41,11.90
2013,08,09,14,42,11.90
2013,08,09,14,43,11.90
2013,08,09,14,44,11.80
2013,08,09,14,45,11.80
2013,08,09,14,46,11.80
2013,08,09,14,47,11.80
2013,08,09,14,48,11.80
2013,08,09,14,49,11.70
2013,08,09,14,50,11.70
2013,08,09,14,51,11.70
2013,08,09,14,52,11.70
2013,08,09,14,53,11.70
2013,08,09,14,54,11.70
2013,08,09,14,55,11.70
2013,08,09,14,56,11.70
2013,08,09,14,57,11.70
2013,08,09,14,58,11.70
2013,08,09,14,59,11.70
2013,08,09,15,00,11.70
2013,08,09,15,01,11.70
2013,08,09,15,02,11.70
2013,08,09,15,03,11.70
2013,08,09,15,04,11.70
2013,08,09,15,05,11.70
2013,08,09,15,06,11.70
2013,08,09,15,07,11.60
2013,08,09,15,08,11.60
2013,08,09,15,09,11.60
2013,08,09,15,10,11.60
2013,08,09,15,11,11.60
2013,08,09,15,12,11.60
2013,08,09,15,13,11.60
2013,08,09,15,14,11.60
2013,08,09,15,15,11.60
2013,08,09,15,16,11.60
2013,08,09,15,17,11.60
2013,08,09,15,18,11.60
2013,08,09,15,19,11.70
2013,08,09,15,20,11.70
2013,08,09,15,21,11.70
2013,08,09,15,22,11.80
2013,08,09,15,23,11.90
2013,08,09,15,24,12.00
2013,08,09,15,25,12.20
2013,08,09,15,26,12.40
2013,08,09,15,27,12.50
2013,08,09,15,28,12.60
2013,08,09,15,29,12.70
2013,08,09,15,30,12.70
2013,08,09,15,31,12.60
2013,08,09,15,32,12.50
2013,08,09,15,33,12.30
2013,08,09,15,34,12.20
2013,08,09,15,35,12.20
2013,08,09,15,36,12.10
2013,08,09,15,37,12.10
2013,08,09,15,38,12.20
2013,08,09,15,39,12.30
2013,08,09,15,40,12.40
2013,08,09,15,41,12.50
2013,08,09,15,42,12.50
2013,08,09,15,43,12.40
2013,08,09,15,44,12.40
2013,08,09,15,45,12.30
2013,08,09,15,46,12.30
2013,08,09,15,47,12.30
2013,08,09,15,48,12.30
2013,08,09,15,49,12.30
2013,08,09,15,50,12.20
2013,08,09,15,51,12.20
2013,08,09,15,52,12.20
2013,08,09,15,53,12.20
2013,08,09,15,54,12.30
2013,08,09,15,55,12.30
2013,08,09,15,56,12.30
2013,08,09,15,57,12.30
2013,08,09,15,58,12.30
2013,08,09,15,59,12.30
2013,08,09,16,00,12.30
2013,08,09,16,01,12.20
2013,08,09,16,02,12.20
2013,08,09,16,03,12.20
2013,08,09,16,04,12.20
2013,08,09,16,05,12.20
2013,08,09,16,06,12.20
2013,08,09,16,07,12.20
2013,08,09,16,08,12.20
2013,08,09,16,09,12.20
2013,08,09,16,10,12.20
2013,08,09,16,11,12.20
2013,08,09,16,12,12.20
2013,08,09,16,13,12.20
2013,08,09,16,14,12.20
2013,08,09,16,15,12.20
2013,08,09,16,16,12.20
2013,08,09,16,17,12.20
2013,08,09,16,18,12.30
2013,08,09,16,19,12.30
2013,08,09,16,20,12.40
2013,08,09,16,21,12.50
2013,08,09,16,22,12.60
2013,08,09,16,23,12.70
2013,08,09,16,24,12.80
2013,08,09,16,25,13.00
2013,08,09,16,26,13.10
2013,08,09,16,27,13.30
2013,08,09,16,28,13.50
2013,08,09,16,29,13.70
2013,08,09,16,30,13.90
2013,08,09,16,31,14.20
2013,08,09,16,32,14.60
2013,08,09,16,33,15.40
2013,08,09,16,34,16.40
2013,08,09,16,35,17.10
2013,08,09,16,36,17.60
2013,08,09,16,37,18.20
2013,08,09,16,38,18.60
2013,08,09,16,39,18.70
2013,08,09,16,40,18.80
2013,08,09,16,41,18.80
2013,08,09,16,42,18.80
2013,08,09,16,43,19.00
2013,08,09,16,44,19.30
2013,08,09,16,45,19.30
2013,08,09,16,46,18.80
2013,08,09,16,47,17.60
2013,08,09,16,48,16.30
2013,08,09,16,49,15.40
2013,08,09,16,50,14.70
2013,08,09,16,51,14.30
2013,08,09,16,52,13.90
2013,08,09,16,53,13.70
2013,08,09,16,54,13.60
2013,08,09,16,55,13.50
2013,08,09,16,56,13.40
2013,08,09,16,57,13.40
2013,08,09,16,58,13.40
2013,08,09,16,59,13.50
2013,08,09,17,00,13.60
2013,08,09,17,01,13.70
2013,08,09,17,02,13.80
2013,08,09,17,03,13.90
2013,08,09,17,04,14.20
2013,08,09,17,05,14.50
2013,08,09,17,06,14.70
2013,08,09,17,07,14.90
2013,08,09,17,08,15.10
2013,08,09,17,09,15.00
2013,08,09,17,10,14.90
2013,08,09,17,11,14.80
2013,08,09,17,12,15.10
2013,08,09,17,13,16.40
2013,08,09,17,14,17.00
2013,08,09,17,15,17.20
2013,08,09,17,16,17.30
2013,08,09,17,17,16.60
2013,08,09,17,18,15.60
2013,08,09,17,19,14.70